Temp
18 18 18 18 18 18 18 18 19 19 18 17 17 17 17 17 17 17 17 17 17 17 17 17 18 17 17 17 18 18 18 18 18 18 18 18 18 18 18 18 19 19 19 19 19 18 18 18 19 19 18 18 18 18 18 18 18 18 18 18 18 18 18 18 18 18 18 18 18 18 19 19 19 19 19 19 20 19 19 19 19 18 18 18 18
18 18 18 18 18 18 18 18 18 18 18 17 17 17 17 17 17 17 17 17 17 17 17 18 18 17 17 17 17 17 17 17 17 17 18 17 17 18 18 18 18 19 19 19 19 19 18 18 18 18 18 18 18 18 18 19 19 19 18 18 18 18 18 18 18 17 18 18 18 18 18 18 19 19 19 19 19 19 19 19 19 19 19 18 18
18 18 18 18 18 18 18 18 17 17 17 17 17 17 17 17 17 17 17 17 17 17 17 17 17 17 17 17 17 17 16 16 16 17 17 17 17 17 17 17 17 17 18 18 18 18 18 17 17 17 17 17 17 17 17 17 18 18 18 18 18 18 18 18 18 18 18 18 17 18 18 18 18 19 19 19 19 19 19 19 19 19 19 19 19
18 18 18 18 17 17 18 17 17 17 17 17 17 17 17 17 17 17 17 17 17 17 17 17 17 17 17 17 17 16 16 16 16 16 17 17 17 16 16 16 16 16 16 16 17 17 17 16 16 16 16 15 15 15 16 16 17 17 17 17 17 18 18 18 18 18 18 18 17 18 18 18 18 18 19 19 19 19 19 19 19 19 19 19 19
18 18 18 18 17 17 17 17 17 17 17 17 17 17 17 17 17 17 17 17 17 17 17 17 17 17 17 17 17 17 17 17 16 16 16 16 16 15 15 15 16 15 16 16 16 16 15 15 15 15 16 15 14 14 15 16 16 16 16 17 17 16 17 18 17 17 17 17 17 17 18 18 18 18 18 18 18 18 18 18 18 18 18 18 18
18 18 18 18 17 17 17 17 17 17 17 17 17 16 16 16 16 17 17 17 17 17 17 17 17 17 17 17 18 18 17 17 16 15 15 15 15 15 15 16 16 16 16 16 16 15 15 15 14 15 15 15 14 15 15 15 16 16 16 16 17 16 16 17 17 16 16 17 17 17 17 17 17 17 18 18 17 17 18 18 18 18 18 17 17
18 18 18 18 17 17 17 17 17 17 16 16 16 16 16 16 16 16 16 17 17 17 17 17 17 16 16 16 16 16 16 15 15 15 15 15 15 15 15 16 16 16 16 16 16 15 15 15 15 15 15 15 14 15 15 15 15 16 16 16 16 16 16 16 16 16 17 17 17 17 17 17 17 17 17 17 17 17 17 17 17 17 17 16 16
18 17 17 17 17 17 17 16 16 16 16 16 16 16 15 16 16 15 15 16 16 16 16 16 16 15 15 15 15 15 14 14 14 14 14 14 15 15 15 15 16 16 16 16 15 15 15 14 15 15 14 14 14 14 14 14 14 15 15 15 16 15 15 15 16 16 17 17 17 17 17 17 17 17 17 16 16 16 15 15 15 15 15 15 15
18 17 17 17 17 16 16 16 16 16 16 15 15 15 15 15 15 15 15 15 15 15 15 15 16 15 15 14 14 14 14 14 14 14 14 14 14 15 15 15 15 15 15 15 15 15 14 14 14 14 14 14 14 14 13 13 14 14 14 14 14 14 14 14 15 16 16 16 17 17 17 17 17 17 16 15 15 15 14 14 15 15 15 15 15
17 17 17 17 16 16 16 16 16 16 15 15 15 15 14 14 14 15 15 15 15 15 15 15 15 15 15 14 13 13 13 13 14 14 14 14 14 14 14 14 14 15 15 15 14 14 14 14 13 13 13 13 13 13 13 13 13 13 12 13 13 13 13 14 15 15 15 15 16 16 16 16 16 16 15 14 13 13 14 14 14 14 14 15 15
17 17 17 16 16 16 16 15 15 15 15 15 15 15 14 14 14 15 15 15 15 15 15 15 15 15 15 14 13 13 13 14 14 14 14 14 14 13 14 14 14 14 14 14 14 14 14 14 13 12 12 12 12 12 13 13 13 12 12 12 12 12 13 13 14 14 14 15 15 15 15 15 15 14 13 13 12 13 13 13 13 14 14 14 15
18 18 17 17 16 16 15 16 15 15 15 15 15 15 15 14 15 14 14 14 14 14 14 15 14 14 14 14 12 12 13 13 14 14 14 14 13 13 14 15 14 14 14 14 14 14 14 13 13 12 12 12 12 12 12 13 12 12 13 12 12 12 12 12 12 13 14 14 14 14 14 13 13 12 11 11 12 12 13 13 13 13 14 14 14
18 18 18 17 17 16 16 16 16 15 15 15 14 15 15 14 14 14 14 14 14 14 14 14 14 14 14 14 13 12 12 13 13 13 13 12 12 12 13 14 13 13 13 13 13 13 13 14 13 13 12 12 12 11 11 12 12 12 12 12 12 11 10 10 11 11 12 13 13 14 13 12 12 12 11 10 11 12 13 14 14 13 13 13 13
18 17 17 17 17 17 16 16 16 16 15 15 15 15 15 14 14 14 14 14 14 14 14 14 14 14 13 13 13 12 12 12 13 12 11 10 11 12 13 13 12 13 13 13 13 13 13 13 13 13 11 11 12 12 11 12 13 12 12 12 11 11 10 10 10 10 11 11 12 13 12 11 11 12 11 10 10 11 12 13 12 12 12 12 12
17 17 17 17 16 16 16 16 16 16 15 15 15 15 15 14 14 15 15 14 14 14 14 14 14 13 13 13 13 12 12 12 12 12 11 11 11 12 12 12 12 12 12 12 12 12 12 12 12 12 11 11 12 12 11 12 13 13 13 12 11 11 10 10 10 10 10 11 11 11 11 11 11 10 10 10 10 10 10 10 11 11 12 12 11
17 17 17 17 17 16 16 16 16 16 16 15 15 15 15 14 14 14 14 14 14 14 14 14 14 14 13 13 13 13 12 12 12 12 11 11 11 12 13 13 13 13 12 12 12 11 11 11 11 11 11 11 12 12 11 12 13 13 13 12 12 11 10 9 10 10 10 10 10 10 10 10 10 10 10 10 10 10 10 11 12 12 13 14 14
17 17 17 17 17 16 16 16 16 16 16 15 15 15 15 14 14 14 15 15 14 14 14 14 14 14 13 13 13 13 12 13 13 12 12 12 12 13 13 13 13 13 12 12 12 11 11 11 11 11 11 11 11 12 11 11 12 13 13 12 12 12 11 10 10 10 10 10 10 10 10 10 10 10 10 10 10 10 10 12 13 13 14 15 15
17 16 16 16 16 16 16 16 16 16 15 15 15 15 15 14 14 14 14 15 14 14 15 15 14 14 13 13 13 13 13 12 13 13 12 12 12 13 14 14 13 13 13 12 12 12 11 11 11 11 11 11 11 11 11 11 12 13 13 13 13 13 12 11 10 10 10 10 10 10 10 10 10 10 10 10 10 10 10 11 12 13 14 15 15
16 16 16 16 16 16 16 16 16 15 15 15 15 15 15 14 14 14 14 15 15 15 15 15 15 14 14 13 13 13 13 12 12 13 13 13 13 13 14 14 14 14 14 13 13 13 12 11 11 11 11 11 11 11 11 11 12 12 13 13 14 13 12 11 11 11 11 11 11 10 10 10 10 10 10 10 10 10 10 10 11 12 13 14 14
16 16 16 16 16 16 16 15 15 15 15 15 15 15 15 15 15 14 14 15 15 15 15 15 15 15 14 14 13 13 13 13 12 12 12 12 12 13 14 14 14 14 14 14 14 14 13 12 12 12 11 11 11 11 11 11 11 12 12 13 14 13 12 11 11 11 11 11 11 11 11 11 10 10 10 10 10 10 10 9 10 11 12 13 13
16 16 16 16 16 16 16 15 15 15 15 15 15 15 15 15 15 15 15 15 15 15 15 15 15 15 15 14 14 14 13 13 12 12 12 12 12 12 13 14 14 14 14 14 15 15 14 14 13 12 12 12 11 11 11 11 11 11 11 12 12 12 11 11 11 11 11 11 11 11 11 11 11 11 12 12 11 10 10 9 9 10 11 12 13
16 16 16 16 16 16 16 15 15 15 15 15 15 15 15 15 15 15 15 15 15 15 15 15 15 15 15 15 15 14 14 14 13 13 12 12 12 12 12 13 13 13 13 14 15 15 15 15 14 13 12 12 12 12 12 11 11 11 11 11 11 11 11 11 11 11 12 12 12 13 13 13 13 13 13 12 12 11 10 10 10 9 10 11 11
16 16 16 16 16 16 15 15 15 15 15 15 15 15 16 15 15 15 15 15 15 16 16 16 16 16 16 16 16 15 15 14 14 13 13 13 12 12 12 12 12 12 13 13 14 14 14 14 14 13 12 12 12 11 11 11 11 11 11 11 11 11 10 10 11 12 12 13 13 13 13 13 13 13 13 13 12 11 10 10 10 9 10 10 10
16 16 16 16 16 15 15 15 15 15 15 15 15 15 15 15 15 16 16 16 16 16 16 16 16 16 16 16 16 16 16 15 15 14 14 14 13 13 13 12 12 12 12 12 13 14 14 14 13 12 12 12 11 11 11 11 11 12 12 11 11 11 11 10 11 12 12 13 13 13 13 13 13 13 13 13 12 11 10 10 10 10 10 10 10
16 16 16 16 15 15 15 16 16 15 15 15 15 15 15 15 16 16 16 16 16 16 16 17 17 17 17 17 17 17 17 16 16 15 14 14 14 14 13 13 13 12 12 12 12 13 13 13 12 12 12 12 11 11 11 11 11 12 12 11 11 11 11 11 11 12 13 13 13 14 14 14 13 13 13 12 11 10 10 10 10 10 10 10 10
16 16 16 16 16 15 16 16 16 15 15 15 15 16 16 16 16 16 16 16 16 16 17 17 17 17 17 17 17 17 17 16 16 16 15 14 14 14 14 13 13 13 12 12 12 12 12 12 12 12 12 12 12 12 11 11 11 12 12 12 12 12 11 11 12 13 13 13 13 14 14 14 14 13 11 11 11 11 11 11 11 11 11 10 11
15 16 16 16 16 15 15 15 15 15 16 16 16 16 16 16 16 16 16 17 17 16 16 17 17 17 17 17 17 16 16 16 16 16 15 14 14 14 14 14 13 13 12 12 12 13 12 12 12 12 13 12 12 12 12 12 12 12 12 12 12 12 12 12 12 13 13 13 13 13 13 13 13 12 11 11 11 12 12 12 12 12 12 12 12
15 15 15 15 15 15 15 15 15 15 16 16 16 16 16 16 16 16 16 16 15 15 15 16 16 16 16 16 16 16 16 16 15 13 12 12 12 12 12 13 13 13 12 12 12 12 12 13 12 12 12 12 12 13 13 13 13 13 13 13 13 13 12 12 12 12 12 13 13 13 13 13 13 12 12 12 12 12 12 12 12 12 13 13 12
15 15 15 15 15 15 15 15 15 15 15 15 15 15 15 15 15 15 15 14 13 13 13 13 13 13 13 13 14 14 14 13 12 11 11 11 10 10 10 10 10 10 11 11 11 11 11 12 13 13 13 13 14 14 14 14 14 14 14 14 14 14 13 13 12 12 12 12 13 13 13 13 13 12 12 12 12 12 12 12 11 11 12 12 12
15 15 15 15 14 14 15 15 15 15 15 15 15 15 15 15 14 14 13 13 12 12 11 11 11 10 10 11 11 11 10 10 10 11 11 10 10 10 9 9 9 9 10 10 10 9 9 11 12 13 13 13 14 14 15 15 15 15 15 15 15 14 14 14 13 13 13 13 13 13 13 13 12 12 11 11 11 11 10 11 11 11 11 12 12
14 14 14 14 13 13 14 14 14 14 14 14 14 14 15 15 14 13 13 12 12 11 11 11 10 10 9 9 9 9 9 9 10 10 10 10 10 10 10 10 10 10 10 10 9 9 9 10 11 12 12 13 13 14 14 14 14 14 14 14 14 14 14 14 13 13 14 13 13 13 13 12 12 12 11 11 11 10 10 11 11 11 11 12 12
13 13 13 13 12 13 13 13 13 13 13 13 13 13 14 14 14 13 13 12 11 11 11 10 10 9 9 8 8 8 8 9 9 9 10 10 10 10 10 10 10 10 10 9 9 9 10 11 11 11 12 12 13 13 13 13 13 12 12 12 12 12 12 12 11 10 11 12 12 12 12 12 12 12 12 12 11 11 11 11 11 11 12 12 12
12 12 11 11 12 12 12 12 12 12 12 12 12 12 12 13 13 13 12 12 12 11 11 10 9 9 8 8 7 7 8 8 9 9 9 10 10 10 10 10 10 10 10 9 9 10 11 12 12 12 12 12 12 12 12 12 11 11 10 10 10 10 10 10 9 8 9 9 10 11 12 12 12 12 12 11 11 11 11 11 11 12 12 12 12
11 11 9 9 10 11 11 11 11 11 11 11 11 11 11 11 11 12 12 12 12 12 12 11 10 9 8 7 7 8 8 8 8 8 9 9 9 9 10 10 11 10 9 9 10 11 11 11 12 12 12 12 12 12 12 11 11 10 10 10 9 9 9 9 9 9 9 9 10 10 11 11 11 11 11 11 11 11 11 11 11 11 11 11 11
10 10 9 9 10 10 10 10 10 9 9 10 10 10 10 10 10 11 11 11 11 11 11 11 9 8 7 7 7 7 7 7 8 8 8 8 8 9 9 11 11 10 10 10 10 11 11 11 11 11 11 11 11 11 11 10 10 9 9 9 8 8 8 8 8 8 8 9 9 9 9 10 10 11 11 11 11 11 11 11 11 11 11 11 11
9 9 9 9 9 9 9 9 9 8 8 9 9 9 9 9 10 10 10 10 10 10 10 9 8 8 7 6 6 7 7 7 8 8 8 8 8 9 9 10 11 11 10 10 10 10 11 11 11 11 10 10 10 10 10 9 9 9 9 8 8 7 7 7 7 7 7 7 8 8 9 9 10 10 10 11 11 11 11 11 11 10 10 10 10
8 8 8 8 8 9 9 8 8 7 8 8 9 9 9 9 9 9 9 9 9 9 9 8 8 8 7 7 7 7 8 8 8 8 8 8 8 9 9 10 10 10 10 10 10 10 10 10 10 10 10 9 9 9 9 8 7 7 7 7 6 6 6 6 6 6 6 6 7 8 8 9 9 9 9 10 10 10 10 10 10 10 9 9 8
7 6 6 6 7 8 8 8 7 8 8 8 8 8 9 9 9 9 9 9 9 9 9 8 7 7 7 7 7 8 9 8 8 8 8 8 8 9 9 9 9 9 9 9 9 9 9 9 9 8 8 8 7 7 7 6 6 6 5 5 5 4 4 5 5 5 5 6 7 7 8 8 8 8 8 8 8 9 9 9 9 9 9 9 9
7 6 5 6 6 7 7 7 8 8 8 8 8 8 8 8 8 9 9 9 9 9 9 8 8 7 6 6 6 7 8 8 8 8 8 8 8 8 8 8 8 8 8 8 8 8 8 7 7 7 6 6 6 6 5 5 4 4 3 3 3 3 3 4 4 4 5 5 6 6 7 7 7 7 8 8 8 8 8 8 8 8 9 9 9
8 7 6 6 7 7 7 7 7 8 8 8 8 8 7 8 8 8 8 8 8 8 8 8 8 7 6 5 5 6 7 8 8 7 7 7 7 7 7 7 7 7 7 7 7 7 6 6 6 6 5 5 5 4 4 3 3 3 2 2 2 2 2 3 3 3 4 4 5 5 6 6 7 7 7 8 8 7 7 8 8 8 8 8 8
8 7 7 6 7 7 8 7 7 7 7 7 7 7 7 7 7 7 7 7 7 8 8 8 7 6 5 5 5 6 7 7 7 7 7 7 7 7 7 6 6 6 6 6 6 6 6 5 5 4 4 3 3 3 3 2 2 2 2 2 2 2 2 2 3 3 3 4 4 5 6 6 6 7 7 7 7 7 7 7 7 7 7 7 7
8 7 7 7 7 7 7 7 7 7 7 6 6 6 7 7 7 7 7 7 7 7 7 7 7 7 5 5 5 6 7 6 6 6 6 6 6 6 6 6 5 5 5 5 5 5 5 5 4 3 3 2 2 2 2 2 2 2 2 2 3 3 3 3 4 4 4 5 5 5 6 6 6 6 7 7 7 7 7 7 7 7 7 7 7
7 7 7 7 7 7 7 7 6 6 6 6 6 6 6 6 7 7 7 7 7 7 7 7 7 6 6 5 5 6 6 6 6 6 6 6 5 5 5 5 4 4 4 4 3 3 4 4 3 3 3 2 2 2 2 2 2 2 2 2 2 3 3 4 4 5 5 5 5 6 6 6 6 6 6 6 6 7 7 7 7 7 7 7 7
7 7 7 7 7 7 6 6 6 6 6 6 6 6 6 6 6 6 6 6 6 6 7 6 6 6 6 6 5 6 6 6 5 5 5 5 5 5 5 4 4 4 3 3 3 3 3 3 3 2 2 2 2 2 2 2 2 1 1 1 1 2 2 3 3 3 4 4 4 5 5 6 6 6 6 6 6 6 6 6 6 6 6 6 6
7 7 7 7 7 7 6 6 6 6 6 7 7 6 6 6 6 6 6 6 6 6 6 6 6 6 6 5 5 5 5 5 5 4 4 4 4 4 4 4 3 3 3 3 3 3 3 3 3 3 3 3 2 2 2 2 1 1 1 1 1 1 1 1 2 2 2 3 3 4 5 5 5 5 5 6 6 6 6 6 6 6 6 5 6
7 7 7 7 7 6 6 6 6 6 6 6 6 6 6 6 6 5 5 5 5 5 6 6 5 5 5 5 5 4 4 4 4 4 4 4 4 3 3 3 3 3 3 3 3 3 2 2 2 3 3 3 3 3 3 2 1 0 0 1 1 1 1 1 1 1 1 2 2 3 4 4 5 5 5 5 5 5 6 6 6 6 6 5 6
7 7 7 7 7 6 6 6 6 6 6 6 6 6 6 6 6 5 5 5 5 5 5 5 5 5 4 4 4 4 4 4 4 4 3 3 3 3 2 2 2 2 3 2 2 2 2 2 2 2 2 2 2 2 2 1 1 -0 -1 -0 0 0 0 0 1 1 1 2 2 2 2 3 4 5 5 5 5 5 5 5 5 5 5 5 5
7 7 6 6 6 6 6 6 6 6 6 6 6 5 5 5 5 5 5 5 5 5 5 5 5 4 4 4 3 3 3 3 3 3 3 3 2 2 2 1 1 1 2 2 2 2 2 1 1 1 1 1 1 1 1 0 -0 -1 -2 -2 -1 -1 -1 -1 -1 -0 1 1 1 1 1 2 2 3 3 4 4 4 4 4 5 5 5 5 4
6 6 6 6 6 6 6 6 6 6 6 6 6 5 5 5 5 5 5 5 5 4 4 4 4 4 4 3 3 3 3 3 3 3 2 2 2 2 1 1 1 1 1 1 1 1 1 1 1 1 1 1 1 1 0 -0 -1 -2 -3 -2 -2 -2 -2 -2 -2 -1 -1 -0 0 1 1 1 1 1 2 2 3 3 3 4 4 4 4 4 4
6 6 6 6 6 6 6 6 6 6 5 5 6 5 5 5 5 5 4 4 4 4 4 4 4 4 3 3 3 2 2 2 2 2 2 2 1 1 0 0 0 0 0 1 1 0 1 1 0 0 0 0 0 0 0 -1 -2 -3 -4 -3 -3 -2 -2 -2 -2 -2 -2 -2 -1 -1 -0 0 0 1 1 1 2 2 3 3 3 3 3 3 3
6 6 6 6 5 6 6 5 5 5 5 5 5 5 5 5 5 4 4 4 4 4 3 3 3 3 3 3 2 2 1 1 1 1 1 1 1 0 -0 -0 -0 -1 -0 -0 -0 -0 -0 -0 -0 -0 -0 -1 -0 -0 -1 -2 -3 -4 -4 -4 -4 -4 -3 -3 -3 -3 -2 -2 -2 -2 -1 -0 0 0 1 1 1 2 2 2 2 2 2 2 2
Height
802 803 804 805 805 806 806 807 808 808 809 810 811 811 812 812 813 813 813 814 814 814 815 815 815 816 816 816 817 817 817 818 818 819 819 819 819 819 819 819 819 819 818 819 819 819 819 819 818 818 818 819 819 819 819 818 818 818 818 818 818 818 819 819 818 816 815 814 814 813 812 811 810 809 809 808 807 807 806 807 807 807 807 806 805
802 803 804 804 804 805 806 806 807 807 808 809 810 810 811 811 811 812 812 813 813 813 814 814 814 814 814 815 815 815 815 816 817 817 817 817 817 817 817 817 817 817 817 817 817 817 817 817 817 817 817 817 817 817 816 816 815 816 816 817 817 817 816 816 816 815 814 813 812 811 810 809 808 807 807 806 806 805 805 804 804 804 803 803 803
802 802 803 803 804 804 805 805 806 807 808 809 809 809 810 810 810 810 811 811 812 812 813 813 813 813 813 813 813 813 814 814 814 814 815 815 815 815 816 815 816 816 816 816 816 815 815 816 816 816 816 816 816 816 816 815 815 815 814 814 814 813 813 813 812 812 812 811 811 810 808 807 806 805 805 804 804 803 803 802 802 801 801 800 800
801 801 802 802 803 803 804 805 806 807 808 808 808 808 808 809 809 810 810 811 811 811 812 812 812 812 812 812 812 812 812 812 812 812 812 813 813 813 813 814 814 815 815 815 815 814 813 813 814 814 814 814 814 814 814 814 814 813 812 812 811 811 811 810 810 810 809 809 808 807 806 804 804 803 803 802 801 801 801 800 800 799 799 798 798
800 801 801 802 802 803 804 805 806 807 807 807 807 807 808 808 808 809 810 810 811 811 811 811 811 811 811 811 811 811 811 811 811 811 811 812 812 811 811 811 812 812 812 812 812 812 811 811 811 811 811 811 811 811 810 810 811 810 809 809 809 809 809 808 808 808 807 807 806 805 804 803 802 802 801 801 800 799 799 798 798 797 797 797 797
800 800 801 801 802 803 804 805 806 806 806 807 807 807 807 808 808 809 809 810 810 810 810 810 810 810 810 809 810 810 810 810 810 811 811 810 810 810 809 809 810 810 810 810 810 809 809 809 808 808 809 809 809 808 808 808 808 808 807 806 807 807 807 807 807 806 805 804 804 803 802 801 801 800 799 799 799 798 797 796 796 795 795 795 795
800 801 802 802 803 804 805 805 806 806 806 806 807 807 807 808 808 809 809 810 810 810 810 810 810 810 809 808 809 809 809 809 810 810 810 809 809 809 809 808 808 808 808 808 808 808 807 807 807 806 807 806 806 806 806 805 805 805 805 805 805 805 805 805 804 804 802 801 801 800 799 799 798 798 798 798 797 797 796 795 794 794 794 794 794
801 802 803 803 804 805 806 807 806 807 807 807 807 808 808 809 809 809 810 810 810 810 810 810 810 810 809 809 808 808 809 809 809 809 809 809 809 808 808 808 807 807 807 807 806 806 806 806 805 805 805 804 804 804 804 804 803 803 803 803 803 803 803 803 802 801 800 798 798 797 797 796 795 795 796 796 796 796 796 795 794 794 794 794 793
803 804 805 805 807 807 807 808 808 808 808 808 808 808 809 810 810 810 810 810 811 811 811 811 810 810 810 810 809 809 808 808 808 808 808 808 808 808 807 807 807 806 806 806 805 805 805 805 804 804 803 802 802 802 802 802 802 802 802 802 802 802 802 801 800 799 798 796 795 794 794 794 793 794 795 795 796 795 795 795 794 794 793 792 791
806 807 807 808 809 809 809 809 809 809 809 809 810 810 810 811 811 812 812 812 812 812 812 812 811 811 811 811 810 809 809 809 808 808 807 807 807 807 807 807 806 806 805 805 805 804 805 804 803 802 802 802 801 801 800 800 800 800 800 800 801 800 800 799 798 798 797 795 794 794 794 793 793 794 794 794 795 795 795 795 794 793 793 791 789
808 808 809 809 810 810 811 811 811 811 811 812 812 812 812 813 813 814 813 813 814 813 813 813 812 812 812 811 811 810 809 809 808 808 807 807 806 807 807 806 806 805 805 804 804 804 804 803 803 802 802 801 801 800 799 799 799 798 799 799 799 798 798 797 797 796 796 795 794 794 794 794 794 795 795 795 795 795 795 795 794 793 791 789 788
809 810 810 811 811 812 812 812 813 813 813 814 814 814 815 815 815 815 815 815 815 815 814 814 813 813 813 812 812 811 810 810 809 808 807 806 806 806 806 806 805 805 805 804 804 804 804 803 803 802 802 801 800 800 799 798 798 797 797 797 797 797 796 796 796 796 796 795 795 795 795 795 795 795 796 795 795 795 794 793 792 791 790 789 788
811 812 812 812 813 813 814 814 815 815 815 816 816 816 816 817 817 817 817 817 816 816 815 815 814 814 814 813 813 813 812 810 809 808 807 806 806 806 806 806 806 805 805 805 805 804 804 803 803 802 802 800 800 800 799 798 798 797 797 796 796 796 795 795 795 795 796 796 795 795 795 795 795 795 795 795 794 793 792 791 790 790 790 789 788
813 814 814 815 815 815 816 816 816 817 817 818 818 818 818 818 818 819 818 818 818 817 817 816 816 816 815 815 815 814 813 811 810 808 807 806 806 806 806 807 806 806 805 805 805 804 804 804 803 803 802 801 799 799 799 799 798 797 796 796 796 795 795 795 795 795 795 795 795 794 795 795 795 795 795 795 794 793 792 790 790 790 790 789 788
816 816 817 817 818 818 818 819 819 819 819 819 820 820 820 820 820 820 819 819 819 818 818 818 817 817 817 816 816 815 814 812 811 810 808 808 807 807 807 807 807 806 806 806 805 805 805 805 804 803 803 801 800 798 798 798 798 797 797 796 796 796 795 794 794 794 794 794 794 794 794 794 794 794 794 793 793 792 791 790 790 789 788 787 787
819 819 820 820 820 821 821 821 821 821 821 821 821 821 822 821 821 821 820 820 820 820 820 819 819 818 818 818 817 816 815 814 812 811 810 809 808 808 808 808 807 807 806 806 806 805 805 805 804 804 803 802 800 798 798 798 797 797 796 796 796 796 795 793 793 792 792 792 793 793 793 793 793 793 792 792 791 791 790 788 788 787 786 784 783
822 822 822 822 822 822 822 822 822 822 822 822 823 823 823 822 822 822 822 821 821 821 821 820 820 820 819 819 818 817 816 815 813 812 811 810 809 808 808 808 807 807 807 806 806 806 805 804 804 804 804 802 801 800 799 798 798 798 797 796 796 795 795 794 793 792 792 792 792 792 792 792 792 792 791 791 790 790 789 787 786 786 784 781 780
824 824 824 824 824 824 824 824 823 823 823 823 824 824 824 824 823 823 823 823 822 822 821 821 821 820 820 819 818 817 816 815 814 813 812 811 810 809 809 808 808 807 807 806 806 806 805 804 804 804 804 803 802 801 800 799 799 798 797 796 796 795 795 794 793 792 792 792 792 792 791 791 791 791 791 790 790 789 789 787 786 785 783 780 780
826 826 826 826 826 825 825 825 825 824 825 825 825 825 824 824 824 824 824 823 822 822 821 821 820 820 819 819 818 817 816 815 813 813 812 811 810 810 809 808 808 807 807 806 806 806 805 805 804 804 804 803 802 802 801 800 799 799 798 796 795 794 794 794 793 793 792 792 792 791 791 791 790 790 790 789 789 788 788 788 787 786 783 781 781
827 827 827 826 826 827 826 826 826 826 826 826 825 825 825 825 825 824 824 823 822 822 821 820 820 819 818 817 816 815 815 814 813 812 812 811 811 810 809 808 808 807 807 806 805 805 805 804 803 803 803 802 802 801 801 800 800 799 798 796 795 794 794 794 793 793 792 792 791 791 791 790 790 790 789 789 788 787 787 787 786 786 784 782 781
827 827 827 827 827 827 827 827 827 827 827 826 826 826 825 825 825 824 823 823 822 821 820 819 818 817 816 816 815 814 814 813 812 811 811 811 810 810 809 809 808 807 806 805 804 803 802 802 801 801 801 801 801 800 800 799 799 799 798 796 795 795 794 794 793 792 792 791 791 790 790 789 789 788 788 787 787 787 786 786 785 785 784 783 781
828 828 828 828 828 828 828 828 828 828 827 827 826 826 825 825 824 824 823 822 821 820 819 818 817 816 815 814 813 813 812 812 811 810 810 809 809 809 809 808 807 807 806 804 803 801 801 801 800 799 799 799 799 798 798 798 797 797 796 796 795 794 794 793 792 791 790 790 789 788 787 787 786 786 785 785 785 785 785 785 784 784 784 783 782
829 829 829 829 829 829 829 829 829 828 828 827 827 826 825 824 824 823 822 821 819 818 817 816 815 814 813 812 811 811 810 810 809 809 808 808 807 807 807 806 806 806 805 804 802 801 800 800 799 798 798 797 797 796 796 795 795 795 794 794 793 793 792 792 791 790 789 788 787 786 785 785 784 784 783 783 783 784 784 783 783 783 782 782 781
830 830 831 831 831 831 830 830 829 829 828 827 826 825 824 824 823 822 821 819 818 817 815 814 813 812 811 810 809 809 808 808 807 807 806 806 806 805 805 804 804 804 804 803 802 801 800 799 798 797 796 796 795 795 794 793 792 792 792 791 791 790 790 789 789 788 787 786 785 784 783 782 782 782 781 782 782 782 782 782 781 781 780 780 780
832 832 832 832 832 832 831 830 830 829 828 827 826 825 824 823 822 821 819 818 817 815 814 812 811 810 809 808 808 807 806 806 805 805 804 804 804 803 803 802 802 802 801 801 800 799 798 797 796 795 794 794 793 792 791 790 789 789 789 788 788 787 787 787 786 785 784 784 782 781 779 779 780 780 780 780 781 780 780 780 779 779 779 778 778
833 833 833 832 832 831 831 830 829 828 827 826 825 824 823 821 820 820 818 817 815 814 812 811 810 808 807 807 806 805 805 804 803 802 802 802 801 801 800 799 799 799 798 798 797 796 795 794 793 792 792 791 790 789 788 787 786 786 785 785 784 784 784 783 783 782 781 780 779 778 776 776 776 778 778 779 779 778 778 778 778 777 777 776 775
834 833 832 832 831 831 830 829 828 827 826 825 824 822 821 820 819 818 816 815 814 813 812 811 809 808 806 806 805 804 803 802 801 801 800 800 800 800 799 798 797 796 795 795 794 793 792 791 790 789 788 787 786 786 785 784 783 782 781 781 780 780 779 779 779 778 777 776 775 775 774 773 774 775 776 777 776 776 775 776 775 774 773 773 772
834 833 833 832 831 831 830 829 828 826 825 824 822 821 820 819 818 817 816 815 814 814 813 811 810 808 807 806 805 803 802 802 801 801 801 800 799 799 798 797 796 795 793 793 791 790 789 788 786 785 784 783 782 781 780 779 778 777 777 776 775 775 775 775 775 774 774 773 772 772 771 771 771 771 772 773 773 773 772 772 772 771 770 770 769
834 834 833 832 832 831 830 829 828 826 824 823 822 821 820 819 818 817 816 816 815 815 814 812 811 810 809 808 806 805 803 802 802 801 800 799 798 797 796 795 794 793 791 790 789 788 787 786 784 782 780 779 778 776 775 774 772 771 771 771 771 771 771 771 771 770 770 770 769 768 768 768 768 768 768 768 769 769 770 769 770 769 769 768 766
835 835 834 833 833 832 830 829 828 826 824 823 821 820 819 818 817 817 816 816 815 815 814 813 812 811 810 809 808 807 806 804 802 801 799 798 797 796 794 793 792 790 789 788 787 786 785 784 782 780 778 777 775 773 771 769 768 766 766 766 766 766 767 767 767 766 766 766 765 765 765 765 765 765 765 765 765 767 767 767 767 767 767 766 764
836 835 835 834 834 832 831 829 828 826 824 823 821 820 818 817 816 815 815 815 814 814 813 813 812 811 810 809 808 807 806 804 802 800 798 797 795 794 792 791 790 788 787 786 784 784 783 781 780 778 777 775 772 770 769 768 767 766 766 765 765 764 764 764 764 763 762 763 763 763 763 763 762 762 762 763 764 765 765 764 764 764 763 763 763
838 837 836 836 834 833 832 830 828 827 825 823 822 820 818 817 816 815 815 814 814 813 813 812 811 810 809 808 807 806 804 802 800 798 797 795 793 792 790 789 787 786 784 783 782 781 780 778 776 775 773 772 770 769 768 768 767 766 766 767 767 766 765 764 764 763 763 762 762 762 761 762 761 760 761 762 762 762 762 762 762 761 761 761 760
839 839 838 837 835 833 832 830 829 827 826 824 823 821 820 818 817 816 815 814 813 813 812 812 811 810 809 808 807 805 803 800 798 796 795 793 791 789 788 786 785 783 782 781 780 778 777 775 774 772 770 769 768 767 767 766 766 765 765 765 767 767 766 766 767 767 766 764 763 761 761 761 760 760 760 761 761 761 761 760 759 759 759 758 758
841 841 840 838 836 834 832 831 830 828 827 826 824 822 821 820 819 817 815 814 813 813 812 811 810 810 809 808 806 803 801 799 797 795 793 791 789 787 785 783 782 780 779 779 778 776 774 773 771 770 768 767 766 766 765 764 765 764 763 763 764 765 765 766 767 767 767 766 764 763 762 762 761 761 760 760 760 760 760 759 758 758 757 757 756
843 842 840 839 836 835 833 832 831 830 829 827 825 824 822 821 820 818 817 816 815 814 813 812 811 810 809 807 804 802 800 798 796 794 792 790 788 786 783 781 780 779 778 777 776 775 773 772 770 769 768 767 766 765 764 764 764 764 763 762 763 763 764 765 766 766 766 766 765 764 764 764 762 761 760 759 758 758 758 757 757 757 756 756 755
844 842 840 839 837 836 834 834 833 832 830 828 827 826 824 823 822 820 819 818 817 816 815 815 814 812 810 808 805 802 800 798 796 794 792 790 787 785 783 781 780 779 778 777 776 775 773 771 770 769 768 767 766 766 765 765 764 764 763 763 764 764 764 765 766 766 765 765 765 765 765 763 762 761 760 759 758 757 757 757 757 757 756 756 755
845 843 841 839 838 837 836 835 835 834 832 831 829 828 826 825 824 822 821 821 820 818 818 818 816 813 811 808 806 804 802 800 797 795 793 790 788 786 785 784 783 782 780 778 777 776 774 773 772 771 770 769 769 768 767 767 767 766 766 766 766 766 767 767 767 766 765 765 766 766 765 764 763 762 762 761 759 758 758 757 757 757 756 756 756
846 844 843 841 840 839 838 838 837 835 834 832 831 830 829 827 826 824 823 822 821 819 819 819 818 816 813 810 808 805 803 801 798 796 794 792 790 789 788 788 786 785 783 782 780 779 777 776 775 775 774 774 773 772 772 771 771 771 770 769 769 769 769 769 768 767 767 767 767 766 766 765 764 764 764 763 762 760 759 758 758 757 756 755 754
847 846 845 843 843 842 841 840 838 837 835 834 833 832 831 829 828 826 825 824 822 821 820 820 819 818 817 814 811 807 805 802 801 799 798 796 795 794 793 792 791 789 788 786 785 783 782 781 780 779 779 778 777 777 776 775 775 774 773 772 772 772 772 771 770 769 769 768 768 767 767 766 766 765 765 764 762 761 760 759 758 757 755 754 753
848 848 847 845 845 844 843 842 841 839 838 836 835 834 833 832 830 829 828 826 825 824 823 822 821 821 820 818 814 810 808 806 805 804 803 801 800 799 797 796 795 794 792 791 789 787 786 785 784 784 783 782 781 781 779 778 777 776 775 775 774 774 773 773 772 771 770 770 769 768 768 767 767 766 764 763 763 762 760 759 757 757 756 755 754
849 849 848 847 846 845 844 843 842 841 840 839 837 836 835 834 833 831 830 829 828 826 825 824 823 823 823 821 817 814 812 810 809 808 806 805 804 802 801 800 798 797 796 794 792 791 790 788 788 787 786 785 784 783 781 780 779 778 777 777 776 775 774 774 773 772 771 770 770 769 768 767 766 765 764 764 763 762 760 758 757 756 755 755 754
851 850 849 848 847 846 845 845 844 843 842 841 840 839 838 836 835 834 833 831 830 829 827 826 825 825 824 822 820 817 815 814 813 811 810 808 807 805 804 803 802 800 799 797 795 794 792 791 790 789 788 787 785 784 783 782 781 779 779 778 777 776 775 774 773 772 771 770 769 768 767 766 766 765 764 764 763 761 759 758 757 756 755 754 754
852 851 850 850 849 848 847 846 845 845 844 843 842 841 840 838 837 836 835 833 832 831 829 828 827 826 825 824 822 819 818 817 815 814 813 811 810 809 807 806 805 804 802 800 798 797 795 794 793 791 790 789 787 786 785 783 782 781 780 779 778 777 775 774 773 771 770 769 768 767 766 766 765 764 763 763 762 761 759 758 757 756 755 754 753
853 852 852 851 850 849 848 848 847 846 846 845 844 843 841 840 839 838 836 835 834 833 831 831 829 828 826 825 823 822 820 819 818 817 816 814 813 811 810 809 807 806 804 803 801 800 798 797 795 793 792 790 789 787 786 784 783 782 781 780 779 778 777 775 774 772 771 769 768 767 766 765 764 764 763 762 761 760 759 758 757 756 756 755 754
854 853 853 852 851 851 850 849 848 848 847 846 845 844 843 842 841 840 839 838 836 835 834 833 831 830 829 827 826 824 823 822 821 819 818 816 815 814 812 811 809 808 806 805 803 802 800 799 797 795 794 792 790 789 787 786 784 783 782 781 780 779 777 776 775 773 772 770 769 767 766 765 764 763 762 761 760 759 758 757 756 755 755 755 754
855 854 854 853 853 852 851 851 850 849 848 847 846 845 844 843 842 842 841 840 839 837 836 834 833 832 831 829 828 827 825 824 823 821 820 818 817 815 814 813 811 809 807 806 804 803 801 800 798 796 795 793 792 790 789 787 786 785 783 781 780 779 777 776 775 773 772 770 769 767 766 765 763 762 761 760 759 759 758 756 755 755 754 754 753
856 856 855 854 854 853 853 852 851 850 849 848 848 847 846 845 844 843 842 841 840 839 837 836 835 834 832 831 830 829 827 826 824 823 821 820 818 817 815 814 812 810 809 807 805 804 802 801 799 797 796 794 793 791 790 788 787 785 783 781 780 778 777 775 774 772 771 770 768 767 766 764 762 761 759 758 758 757 756 756 755 754 753 753 752
857 856 856 855 854 854 853 852 852 851 850 849 849 848 847 846 845 844 843 842 841 840 839 837 836 835 834 833 832 830 829 827 826 824 823 821 819 818 816 814 813 811 809 807 806 804 803 801 800 798 796 795 793 792 790 788 787 785 783 781 780 778 777 775 773 772 770 768 767 766 765 764 763 761 759 758 757 756 755 754 753 752 752 752 752
858 857 857 856 855 855 854 853 853 852 851 850 850 849 848 847 846 845 844 843 842 841 840 838 837 836 835 834 833 831 830 828 827 825 824 822 820 819 817 815 813 811 809 808 806 804 803 801 800 798 796 795 793 792 790 789 787 785 783 781 779 778 776 775 773 771 769 768 766 765 764 763 761 760 759 758 756 755 754 753 752 751 751 750 750
858 858 857 857 856 855 855 854 853 853 852 851 850 850 849 848 847 846 845 844 843 842 841 839 838 837 836 834 833 832 831 829 827 826 824 822 821 819 817 815 814 812 810 808 806 805 803 801 799 798 796 795 793 792 790 789 786 784 782 780 778 777 775 773 772 770 769 767 765 764 762 761 759 758 757 756 755 754 753 751 751 750 749 749 749
859 858 858 857 857 856 855 855 854 854 853 853 852 851 850 849 848 847 846 845 844 842 841 840 839 838 836 835 834 832 831 829 828 826 824 823 821 819 817 815 814 812 810 808 806 804 803 801 799 797 796 794 792 791 790 788 785 783 781 778 777 775 773 771 770 768 767 766 764 763 761 759 758 756 755 754 753 752 750 750 749 748 748 747 747
Wind_Speed
9 9 9 9 9 9 9 8 8 7 6 6 6 8 9 9 9 8 7 8 9 10 10 9 9 9 10 9 8 8 7 8 9 9 11 13 13 14 14 14 15 15 14 13 12 11 11 11 10 10 10 9 9 9 10 11 12 12 11 10 11 11 11 12 11 10 12 12 11 11 12 12 12 12 12 12 12 12 12 13 13 14 14 15 15
9 9 8 8 8 8 8 7 7 7 7 6 7 8 8 8 8 8 7 8 8 9 9 9 9 9 10 10 9 8 8 9 8 9 11 11 12 13 13 13 15 15 14 14 14 14 13 12 11 11 12 12 12 11 12 13 13 11 10 9 12 13 13 15 14 12 13 13 13 13 14 14 15 14 13 13 13 13 13 14 14 14 15 15 15
8 7 7 7 7 6 6 5 5 5 5 5 5 6 7 6 6 6 7 7 8 8 8 9 9 9 9 9 10 11 11 12 11 11 11 11 10 11 10 11 12 12 12 13 13 13 13 10 9 11 13 13 13 13 13 14 13 13 14 15 16 16 15 16 16 15 15 14 14 15 15 14 14 14 13 13 13 13 14 14 14 14 14 14 13
7 6 6 6 5 4 3 3 3 3 3 3 4 4 4 4 4 5 6 6 7 7 7 8 8 9 10 10 12 12 11 11 10 10 11 12 11 10 10 11 11 11 14 15 14 13 12 11 11 13 14 14 14 13 13 15 15 15 16 17 17 18 18 17 16 16 16 15 15 15 14 13 13 13 13 13 14 13 13 13 13 13 14 13 13
7 6 6 6 5 4 3 2 2 2 2 2 3 3 2 3 3 4 4 4 4 5 5 6 6 7 8 9 9 9 8 8 8 9 11 12 11 10 10 10 11 12 14 16 16 15 14 13 13 14 15 14 14 14 15 16 17 15 16 17 17 17 18 16 15 16 17 17 16 15 15 14 13 13 13 13 13 13 13 13 13 14 13 13 13
8 7 7 6 6 5 3 2 2 2 1 1 1 0 1 2 2 2 3 3 3 3 4 4 4 5 6 6 5 5 5 4 4 5 7 8 8 9 9 10 11 11 12 12 12 13 13 12 12 12 13 13 12 13 14 16 17 16 17 18 17 15 16 16 16 17 17 18 17 15 15 14 14 13 12 11 11 12 13 14 14 13 12 11 13
9 9 8 7 7 6 5 4 3 3 3 2 1 2 1 0 0 1 1 2 2 2 3 3 3 4 4 3 2 2 1 1 1 3 4 5 6 7 7 9 9 9 9 9 9 9 9 9 10 10 10 10 10 11 11 13 15 15 15 15 15 13 13 14 16 17 17 16 16 15 14 14 13 13 12 11 11 12 12 13 13 12 11 12 13
12 11 10 9 8 8 7 6 5 5 5 4 4 3 3 2 2 1 1 0 1 1 1 1 1 2 3 2 2 2 1 2 3 4 4 5 6 7 8 8 8 8 7 6 6 6 6 7 8 8 8 8 8 8 8 10 11 12 11 11 12 12 13 14 15 16 16 15 15 14 14 14 13 13 12 11 10 10 10 11 12 12 13 14 15
13 12 12 11 10 9 8 8 7 7 7 6 6 5 5 5 4 4 3 2 2 3 3 3 3 3 3 3 3 2 3 4 4 5 5 5 6 8 8 7 7 7 6 5 5 4 4 4 4 5 7 8 9 9 9 10 10 10 9 9 9 11 13 14 13 13 14 14 14 13 13 13 13 12 11 9 8 8 9 11 12 13 14 15 16
13 12 12 12 11 10 10 9 9 9 9 8 7 6 6 6 6 6 6 5 4 4 4 4 3 3 3 3 4 3 3 3 4 5 6 6 6 6 8 7 7 6 6 6 5 4 4 3 3 5 7 7 8 8 8 9 9 10 9 9 9 10 12 13 12 12 12 12 12 11 12 12 12 11 11 9 9 9 11 11 13 13 14 14 14
11 11 11 11 11 11 10 10 9 9 9 8 8 7 7 6 6 6 6 6 5 5 5 5 5 5 5 5 5 4 4 4 5 6 6 7 5 4 6 6 6 6 5 5 4 4 4 3 2 3 4 4 5 6 7 7 7 8 9 9 9 9 9 10 10 10 11 11 11 10 11 11 10 9 8 7 8 9 10 11 12 12 12 11 10
10 9 9 9 9 9 9 9 9 9 8 8 8 7 7 6 6 6 6 7 7 6 6 6 6 6 6 6 7 7 7 7 6 6 5 6 3 1 3 5 5 4 4 4 4 5 4 3 2 3 4 4 4 4 5 6 6 6 6 7 8 8 8 8 8 8 9 9 10 9 7 7 7 5 5 6 8 10 11 10 10 10 10 10 10
11 10 9 9 9 8 8 7 8 8 8 8 7 6 7 7 7 7 7 7 7 7 7 7 7 6 6 6 7 7 9 9 8 6 4 3 3 4 1 3 3 3 4 4 4 4 5 5 4 4 6 6 4 3 3 4 4 3 2 3 4 5 5 5 5 5 5 6 8 6 3 4 7 6 5 6 8 9 9 9 8 8 9 9 10
12 12 12 11 11 10 9 9 8 8 8 8 8 8 8 8 7 7 7 7 8 8 8 8 8 7 7 7 7 8 10 11 11 10 6 5 7 6 3 2 2 3 3 3 4 4 4 5 4 3 4 5 6 4 2 2 4 3 1 1 2 3 3 2 2 2 2 3 5 4 3 3 5 5 5 5 6 7 7 8 7 8 8 9 8
13 13 12 12 12 11 11 10 10 10 9 9 9 9 9 8 8 8 8 8 8 8 9 9 9 9 8 7 7 9 11 12 11 12 9 8 9 7 3 2 2 2 2 2 2 2 2 2 2 2 3 4 4 3 3 1 3 3 3 2 1 0 0 0 1 0 1 0 1 1 2 2 2 2 2 3 4 5 6 6 6 6 8 7 5
12 12 12 12 11 11 11 11 10 10 10 10 10 10 9 9 8 8 8 8 8 8 8 8 8 8 8 7 6 7 11 12 11 11 10 8 7 4 2 2 2 2 1 1 1 1 1 1 1 2 3 4 5 2 5 4 1 2 3 2 2 2 1 1 2 3 2 2 3 3 2 1 1 1 1 3 3 4 5 6 5 6 8 7 5
11 11 11 11 11 10 10 10 10 10 10 10 10 9 9 8 8 7 7 7 6 6 5 5 6 6 6 6 5 5 7 11 11 11 9 7 5 3 1 2 2 2 1 1 1 1 2 2 2 2 3 5 8 6 6 5 1 1 2 2 3 3 2 2 3 3 2 3 3 3 3 2 2 2 3 3 4 5 6 6 4 6 7 6 5
9 9 9 10 10 10 10 10 10 9 9 9 8 8 7 7 6 5 5 5 4 4 4 3 3 3 3 4 4 3 4 7 10 10 10 8 6 3 2 2 1 1 1 1 1 2 3 4 4 3 3 5 8 7 6 4 2 1 1 2 2 2 2 2 2 2 1 2 2 2 2 1 2 2 3 4 4 4 6 6 5 7 7 6 5
9 9 9 8 9 9 9 9 8 8 8 7 6 6 5 5 4 4 4 3 3 3 4 4 3 3 3 3 4 3 2 4 6 7 8 8 7 4 3 2 1 1 0 1 2 2 1 2 3 3 3 4 6 6 6 4 3 2 2 2 2 2 2 2 2 2 1 2 2 2 2 3 3 3 4 5 5 5 5 5 5 7 7 6 5
9 9 8 8 8 8 8 8 7 7 6 6 5 4 4 3 3 3 4 4 4 4 4 5 4 5 4 4 5 4 3 4 5 5 4 5 5 4 2 2 1 1 2 2 3 4 4 4 2 0 2 3 3 4 5 4 3 3 4 4 2 0 1 2 3 3 3 4 4 4 5 5 4 5 5 5 5 5 5 6 5 5 7 7 5
8 8 8 8 8 8 7 7 6 5 5 4 4 3 3 3 3 4 4 4 4 5 5 6 6 6 5 5 6 6 5 6 7 8 6 4 3 3 2 2 3 3 4 5 5 5 4 5 5 4 4 4 4 5 6 5 5 5 6 6 4 3 3 3 4 4 5 6 6 6 7 7 6 6 6 5 5 5 5 6 5 5 6 6 5
8 8 8 8 8 7 7 6 6 5 5 5 4 4 4 4 4 5 5 5 6 6 6 6 7 7 7 6 6 6 7 7 7 8 8 7 7 5 4 5 5 6 7 7 7 7 6 6 6 8 9 8 8 9 9 9 9 9 8 8 8 7 7 6 6 7 7 8 8 8 8 8 8 8 7 6 5 5 6 6 6 6 6 6 5
8 8 8 8 8 7 7 6 5 5 5 5 6 6 5 6 6 6 7 7 7 8 7 7 7 7 7 7 6 6 7 7 7 8 8 8 9 9 9 9 9 9 9 9 9 9 9 9 9 11 12 13 14 14 14 14 14 13 12 12 12 11 11 10 10 10 10 10 10 10 9 9 9 9 8 7 6 6 7 7 7 8 8 8 7
7 7 6 6 7 7 6 6 5 5 5 6 6 6 6 6 7 7 7 8 8 8 8 8 8 8 7 7 7 6 6 6 8 9 9 9 9 10 11 12 13 12 13 13 12 12 12 12 13 15 17 18 18 18 19 19 19 17 16 16 16 16 15 14 13 13 13 12 12 13 13 12 11 10 9 7 6 6 7 8 9 10 10 10 10
7 6 6 6 6 6 6 6 5 5 6 6 6 6 6 7 7 7 7 8 7 8 8 8 8 8 8 8 8 8 7 7 8 9 9 10 10 10 11 12 13 15 16 16 15 15 17 18 20 21 22 23 22 22 23 23 23 22 21 20 20 20 19 17 15 16 16 15 15 15 15 13 12 11 10 8 8 8 9 10 10 11 11 11 11
6 5 6 6 6 6 6 6 7 7 6 6 6 7 7 7 7 8 8 7 7 8 9 9 10 10 10 11 11 11 10 10 11 10 8 8 10 10 10 12 13 14 17 18 18 20 21 22 23 24 24 24 24 24 23 22 22 23 24 24 24 24 22 19 18 19 19 18 17 17 17 17 14 11 10 10 10 11 11 11 10 10 11 11 11
6 6 6 7 7 7 7 8 9 8 7 7 8 8 8 8 9 9 10 10 10 11 11 11 12 13 13 14 14 14 14 14 14 13 11 10 12 13 13 13 13 13 15 16 17 19 20 21 22 23 24 25 26 26 26 25 25 26 25 25 26 26 25 22 21 21 20 19 18 17 18 18 14 11 11 11 12 13 13 12 11 11 10 10 10
7 7 8 8 8 9 8 8 9 9 8 8 9 9 9 9 10 10 11 11 11 11 12 13 14 14 15 15 16 16 17 16 15 16 17 17 17 16 14 13 13 13 13 14 16 17 17 18 20 21 21 22 23 23 24 24 24 23 22 21 21 22 23 23 22 21 20 20 21 19 17 15 13 13 13 14 15 15 14 13 12 11 10 9 10
9 9 9 9 10 10 9 8 9 10 9 9 9 9 9 9 9 9 9 9 10 11 11 11 12 13 13 13 14 14 15 15 17 18 18 17 16 16 15 14 14 14 15 17 19 19 18 18 19 20 19 19 19 20 21 21 21 21 20 19 20 19 18 18 18 19 20 20 19 17 15 14 14 13 14 14 15 15 13 12 11 10 9 10 12
10 10 10 11 12 12 11 10 11 12 11 11 11 11 11 11 10 8 7 10 13 14 11 10 11 13 12 11 11 12 12 14 17 18 17 17 16 16 15 15 15 16 17 18 18 16 15 16 19 19 19 19 20 21 22 21 22 22 21 19 18 18 18 18 19 19 18 16 14 13 13 13 13 12 13 14 15 15 14 13 11 11 12 13 13
11 11 12 12 13 13 12 12 13 13 13 13 13 13 13 13 11 9 10 15 16 14 13 12 12 14 15 13 12 13 14 16 17 18 18 18 18 17 17 17 17 17 18 18 16 13 12 14 16 17 18 20 21 21 20 21 21 20 18 17 18 18 17 17 18 18 14 12 11 12 11 10 11 11 11 12 13 15 15 14 13 14 15 15 15
12 12 14 14 13 12 12 13 13 13 13 13 14 14 14 13 12 11 13 15 14 13 13 11 12 16 19 16 14 16 18 19 18 18 19 19 18 18 18 17 17 18 17 15 14 12 11 12 14 15 16 19 20 19 20 20 17 12 10 12 16 19 17 14 13 13 11 9 10 10 9 9 9 9 9 9 10 12 13 14 16 16 16 17 17
11 11 14 15 14 12 12 12 12 13 13 14 14 13 13 13 13 13 14 12 11 12 11 10 13 19 19 17 17 20 20 19 18 18 18 18 17 17 17 16 15 15 13 11 10 11 12 13 14 15 16 17 19 19 18 18 13 9 9 11 12 14 15 13 10 9 9 9 8 6 6 7 7 7 7 7 9 11 13 15 16 16 16 17 17
10 11 13 15 13 12 12 12 12 13 13 13 13 13 12 12 12 13 13 12 11 12 10 10 15 20 20 18 20 21 19 19 18 17 16 17 17 17 16 15 13 10 8 8 10 13 15 15 15 16 17 17 17 17 17 15 12 10 11 12 10 8 6 3 2 3 6 7 7 6 7 7 8 9 9 9 9 10 12 13 13 13 13 13 12
11 11 13 14 12 11 12 12 13 13 13 13 13 12 12 12 12 12 12 12 12 12 11 12 16 20 21 22 24 24 23 22 21 19 18 19 19 18 15 13 12 10 9 10 12 14 16 16 15 16 16 15 15 14 13 12 11 10 9 7 6 5 4 4 3 3 4 6 7 7 8 10 11 11 11 11 10 9 9 10 10 10 10 9 9
13 13 13 13 12 12 12 13 13 14 13 13 13 13 12 13 12 12 12 13 12 12 14 15 17 19 20 22 24 26 26 25 24 22 21 21 21 18 15 14 15 14 14 14 15 15 15 15 15 14 14 13 13 13 11 9 8 7 5 1 4 6 5 4 3 3 4 5 7 8 9 11 11 11 11 11 10 9 9 9 9 9 9 8 8
15 15 14 14 13 12 12 13 13 14 14 14 14 14 14 14 14 13 14 14 14 14 15 17 18 19 20 21 22 23 23 23 23 23 24 24 23 20 17 17 18 17 17 17 17 16 16 16 16 15 15 14 13 12 9 8 7 7 7 7 9 10 9 6 6 6 5 6 7 8 9 10 10 9 10 10 10 10 10 10 10 10 9 8 9
15 16 15 14 14 13 13 13 14 14 15 15 15 15 15 15 15 14 15 15 15 15 16 17 20 21 22 22 22 21 22 23 23 23 24 25 24 22 21 21 21 20 19 19 19 18 18 17 17 16 16 15 14 13 12 12 12 12 12 13 13 12 10 8 8 7 6 6 8 8 8 8 8 8 9 9 9 10 10 10 10 10 10 9 9
13 15 15 14 13 13 14 14 15 15 15 15 15 15 15 15 15 15 15 15 15 16 16 17 20 22 22 23 23 22 21 22 23 24 24 24 24 23 22 22 22 22 21 21 20 20 19 18 18 17 17 16 15 14 14 14 14 14 14 14 13 12 12 11 10 10 9 8 7 7 7 8 8 8 9 9 10 10 9 9 8 9 10 10 9
10 12 13 13 12 13 14 14 15 15 15 14 14 15 15 15 15 15 15 15 15 16 16 16 18 20 22 24 25 24 21 21 22 22 22 22 23 22 22 22 22 21 21 21 21 20 19 18 18 17 16 15 15 14 13 13 13 13 13 12 12 12 12 12 11 11 10 9 7 7 7 7 7 8 9 9 9 9 8 8 7 7 8 9 8
9 9 11 12 12 12 13 13 14 14 14 14 14 14 14 14 14 14 15 15 15 15 16 16 16 18 21 25 25 23 20 20 20 20 20 20 21 21 21 21 21 20 20 20 20 19 18 18 17 16 15 13 12 12 11 11 11 10 9 9 9 10 10 10 10 10 9 9 8 8 8 7 7 8 8 8 8 9 7 6 6 6 6 7 7
9 9 10 10 10 11 11 12 12 13 13 13 13 13 13 13 13 13 13 14 14 14 14 15 14 15 19 23 23 21 19 18 19 18 19 19 19 19 19 20 20 20 20 20 20 19 18 17 15 14 13 12 11 10 10 11 11 10 9 9 9 10 10 9 9 9 9 9 8 9 8 8 8 8 7 7 8 9 8 6 7 7 7 7 6
9 9 9 9 10 10 11 11 11 11 12 12 12 12 12 12 12 13 13 13 14 14 14 14 15 14 16 19 20 19 17 18 18 18 18 18 18 18 18 18 19 19 19 20 19 19 18 16 15 14 13 12 12 12 12 11 11 11 11 11 11 11 11 11 11 12 12 11 10 10 10 9 9 10 9 9 9 10 9 8 7 7 7 8 8
8 8 8 9 9 9 10 10 10 10 10 10 10 11 12 12 13 13 13 13 13 13 14 14 15 15 15 16 17 17 16 16 17 17 17 16 17 17 17 17 17 17 17 18 18 19 18 17 17 16 15 15 14 14 13 13 12 11 11 11 12 13 13 13 14 14 14 14 13 13 12 11 11 11 11 11 11 11 10 10 9 8 8 8 9
7 8 8 8 9 9 9 9 9 9 9 9 10 11 11 12 13 13 13 13 13 13 13 13 14 14 15 15 16 16 16 16 15 16 16 16 16 16 16 16 16 16 15 16 17 17 17 17 17 17 16 16 16 15 15 15 14 13 12 12 12 13 14 15 16 15 14 14 14 13 13 13 14 14 14 13 12 11 12 12 11 9 8 9 9
7 7 7 7 7 8 8 9 9 9 10 10 10 10 11 11 11 12 12 12 12 12 12 13 13 14 14 15 15 15 15 15 15 15 15 15 15 15 16 16 16 16 15 15 15 16 16 16 16 16 16 16 15 15 14 14 13 13 14 14 14 13 14 15 16 15 15 15 15 14 14 15 17 17 15 13 13 13 14 13 12 12 11 10 11
5 6 6 6 6 7 7 8 8 8 9 9 10 10 10 10 10 10 11 11 11 12 12 12 13 13 14 14 14 14 15 15 14 14 14 14 15 15 15 16 16 16 15 15 15 15 15 15 15 15 15 15 15 14 13 13 12 13 15 18 18 17 17 17 16 15 16 16 16 16 16 16 16 16 16 15 15 15 15 14 13 14 13 12 12
5 5 5 5 6 6 7 7 7 7 8 8 9 9 9 9 10 10 10 10 11 11 11 12 12 12 13 13 14 14 14 14 14 14 14 14 14 15 15 15 16 16 15 15 15 15 15 15 15 15 15 15 15 14 13 13 12 13 16 20 21 21 20 20 19 18 18 18 17 16 16 16 16 15 16 16 16 15 15 16 15 15 14 13 13
4 4 4 5 5 6 6 7 7 7 7 7 8 8 8 9 9 10 10 10 10 11 11 11 12 12 12 12 12 13 13 13 13 13 13 13 14 15 15 15 15 16 15 15 15 15 15 15 15 15 15 15 15 14 12 11 11 13 18 23 24 23 22 22 21 21 20 20 19 19 18 18 18 18 17 17 16 16 16 17 16 16 16 15 15
3 3 3 4 4 5 6 6 6 7 7 7 7 8 9 8 9 9 10 10 10 10 11 11 11 11 12 12 12 12 13 13 13 13 13 13 14 14 14 15 15 15 15 15 15 15 16 15 15 15 15 15 14 14 12 10 10 16 23 26 26 25 25 24 24 23 22 21 21 20 19 19 19 19 18 18 17 17 17 17 17 17 17 17 16
2 2 2 3 4 4 5 6 6 6 7 7 7 8 8 9 9 9 9 10 10 10 10 11 11 11 11 11 11 12 12 13 13 13 13 13 14 14 14 15 15 15 15 15 15 15 16 15 15 16 15 14 15 14 11 8 12 20 26 27 26 26 26 26 26 25 24 23 22 21 18 17 18 18 18 17 17 18 19 18 18 18 19 19 19
Wind_Direction
181 182 184 189 192 195 196 200 205 211 217 224 232 241 248 251 250 250 256 263 270 274 271 269 268 265 263 260 256 252 247 249 251 253 255 253 252 254 254 255 255 256 256 254 252 253 255 256 255 252 250 247 248 248 248 250 249 248 251 256 260 258 253 251 257 268 271 269 272 275 278 280 276 270 270 272 271 267 263 263 262 260 260 261 263
176 175 178 183 187 194 195 200 211 220 229 238 247 252 252 252 252 255 262 268 272 271 267 265 262 263 263 256 253 253 254 258 261 262 263 261 260 258 257 257 257 258 258 255 255 256 255 257 261 263 260 254 254 255 253 256 257 252 245 245 253 254 250 249 251 257 266 270 274 277 279 279 275 272 270 270 271 270 268 268 267 263 261 261 261
164 165 167 166 171 183 185 193 212 224 235 243 249 251 251 250 251 258 266 270 271 267 266 265 258 256 257 253 254 257 259 260 262 262 261 261 262 260 257 255 254 256 259 260 263 263 258 253 258 268 270 263 262 266 266 264 262 257 254 254 257 257 254 253 254 258 264 269 272 276 279 277 273 274 274 272 271 269 268 270 271 270 269 266 264
143 145 146 143 147 155 155 174 205 222 229 232 238 243 251 256 256 263 269 268 268 266 265 263 259 256 255 256 258 258 258 258 255 252 251 251 253 255 256 257 258 263 265 261 260 260 254 252 258 264 266 265 267 272 269 262 257 256 259 259 259 259 258 255 253 256 263 268 270 275 279 277 274 275 277 275 273 270 271 273 275 275 275 273 272
123 122 122 120 118 121 129 156 191 209 218 227 239 245 263 277 278 276 271 267 266 267 263 257 257 260 259 259 259 256 255 254 247 247 250 250 252 254 254 255 257 262 260 253 252 253 256 263 269 266 261 262 269 271 264 259 257 255 256 258 259 261 261 256 253 258 263 267 271 275 277 275 276 277 277 277 278 276 273 272 275 278 277 277 278
104 105 107 109 109 112 116 124 147 166 181 215 232 261 307 280 283 288 281 280 273 266 265 262 263 271 273 271 270 265 264 257 248 259 266 265 264 261 255 252 254 257 256 252 252 252 257 267 269 263 260 261 266 267 263 261 259 256 256 259 262 264 261 257 258 261 263 265 269 273 273 272 273 274 272 271 274 277 279 279 279 279 279 282 283
95 95 96 100 103 104 104 102 101 101 98 101 99 80 71 173 67 318 296 291 280 272 277 277 281 292 297 307 327 333 337 332 308 302 296 287 279 272 267 263 261 260 260 261 257 247 247 256 259 258 260 261 261 263 266 264 259 255 257 260 262 262 260 260 261 261 260 262 266 268 269 271 271 271 274 277 279 282 288 290 287 288 294 296 293
95 95 94 93 93 93 93 92 88 86 88 89 87 83 81 83 74 57 64 231 291 352 342 329 2 1 11 25 19 359 329 315 308 300 296 295 290 285 280 275 271 268 265 262 261 255 253 257 262 266 266 261 257 254 257 266 270 269 267 266 265 263 261 261 264 266 267 268 269 270 273 276 277 279 283 286 287 289 296 299 298 300 302 299 296
93 93 92 90 89 90 92 94 93 91 90 89 88 87 82 79 82 81 79 89 85 63 51 51 52 47 46 39 24 351 308 302 302 298 293 292 290 286 283 280 276 275 273 273 278 278 274 269 262 262 260 257 259 258 257 262 269 277 281 280 276 273 271 269 270 274 278 278 278 282 286 287 290 297 303 306 304 306 310 309 304 302 300 296 294
89 88 88 88 88 90 90 89 89 87 87 86 88 92 86 79 83 84 83 83 79 67 56 51 48 49 46 39 33 12 329 309 307 305 300 294 289 285 283 283 279 274 271 273 272 260 252 245 235 254 264 265 267 271 274 271 266 269 277 279 281 283 284 283 281 282 286 288 291 297 298 298 307 316 320 327 328 321 317 312 304 299 297 295 294
84 81 82 84 86 87 85 82 80 79 79 81 85 90 90 85 83 84 82 80 73 66 62 57 50 46 43 44 41 18 350 337 323 309 299 293 286 278 283 288 288 285 281 274 267 258 249 234 226 267 275 273 274 278 279 279 275 271 272 273 272 276 282 290 294 297 299 300 302 306 306 309 319 325 323 324 322 312 305 299 295 293 294 295 293
74 74 76 79 82 83 79 76 75 74 74 78 80 85 88 85 82 82 83 83 78 69 62 55 48 44 44 47 45 28 11 1 341 319 306 297 281 209 284 298 296 295 300 295 286 276 265 257 265 284 282 275 278 280 274 271 270 269 270 269 268 267 265 270 281 291 298 300 299 305 311 308 310 320 323 313 307 304 298 292 290 291 293 294 291
72 73 74 74 76 79 77 75 75 74 74 75 75 79 86 86 84 84 85 81 74 65 59 56 52 50 49 50 48 35 23 18 8 357 350 358 80 95 354 313 307 308 315 309 301 292 280 279 275 275 285 285 273 259 260 259 257 275 305 289 287 289 269 251 253 264 277 283 283 289 303 293 293 302 313 310 306 305 299 294 296 299 297 296 298
74 72 70 71 72 74 76 77 76 76 77 78 79 81 86 88 86 85 82 77 71 67 63 60 56 54 54 53 51 39 27 25 23 18 21 62 86 80 34 345 342 326 323 316 311 305 293 290 284 275 290 289 267 245 238 247 237 227 204 233 298 325 315 294 295 295 298 280 274 287 302 292 295 302 309 313 312 309 305 302 305 308 302 299 301
73 71 71 72 74 74 77 79 79 80 81 81 83 83 84 84 82 79 76 71 69 67 64 62 59 55 53 51 51 41 30 29 28 26 35 68 80 71 38 15 25 356 349 351 334 325 312 304 305 312 324 321 296 235 174 200 232 202 188 204 209 261 320 127 146 129 58 136 223 259 269 261 271 290 306 323 318 308 301 290 293 304 302 291 270
73 73 73 74 76 78 81 81 81 82 82 82 82 81 81 80 76 73 71 66 65 62 59 58 54 51 48 45 47 41 33 32 31 31 44 66 67 48 32 52 52 39 31 21 5 356 344 341 17 14 16 21 20 78 137 138 191 191 175 174 166 161 157 122 126 121 105 127 153 168 189 179 127 97 37 20 4 338 303 273 270 295 298 286 259
74 72 71 72 72 74 77 79 79 79 78 78 76 74 72 69 63 59 58 55 52 49 47 48 44 42 40 34 36 39 31 31 33 32 38 55 54 23 21 66 56 57 71 36 18 49 57 96 91 45 30 45 44 61 104 108 79 198 171 170 170 158 145 116 102 97 97 112 125 133 135 116 77 48 21 360 2 358 323 294 292 299 294 292 289
75 72 70 68 67 66 68 71 71 71 70 67 65 62 59 55 46 37 35 36 31 20 16 19 16 16 20 14 11 19 19 22 29 31 29 34 39 17 352 41 55 39 83 111 121 87 76 85 93 81 54 53 49 51 71 75 34 304 187 193 188 155 145 141 115 103 106 113 120 134 135 79 342 334 339 336 339 338 319 310 314 304 293 297 306
73 72 68 65 65 63 61 61 61 63 62 58 52 49 44 39 29 14 359 355 360 353 345 341 336 331 319 310 320 330 335 349 8 22 24 24 26 7 334 1 38 328 272 154 179 177 132 80 77 74 58 45 39 35 41 45 12 318 283 250 223 161 140 152 174 190 207 223 226 232 256 294 303 292 299 319 323 312 298 292 295 297 297 299 300
69 69 67 64 63 59 57 55 51 49 52 48 41 35 27 15 4 348 331 329 337 336 329 325 318 311 303 289 289 290 277 282 307 333 356 12 20 12 340 326 333 291 263 247 233 217 212 221 225 331 11 6 6 2 3 7 354 323 304 296 289 255 186 207 216 218 224 236 243 246 255 264 263 256 266 288 298 292 287 279 268 274 289 291 285
58 57 56 54 50 47 44 40 33 29 29 23 12 5 357 344 331 321 315 318 320 313 306 304 303 304 302 294 283 277 274 273 279 289 297 303 321 340 323 290 290 291 280 271 260 251 250 241 230 246 288 298 299 306 309 309 307 300 292 288 286 274 260 256 251 246 241 245 249 248 248 246 241 240 246 254 259 258 263 268 256 247 266 283 293
49 47 44 42 38 33 28 22 13 7 3 354 344 337 332 324 313 307 306 306 303 300 298 296 300 303 301 297 287 277 280 283 281 284 288 282 278 281 273 266 276 282 281 282 278 273 276 271 256 260 273 279 276 278 281 283 282 279 275 272 269 265 263 265 265 261 255 251 252 253 250 247 242 238 237 238 239 233 234 246 243 234 241 254 274
44 43 39 35 29 21 15 9 360 351 345 338 332 327 322 318 310 302 301 301 299 300 300 297 297 300 299 299 294 279 273 277 283 293 298 288 278 275 268 264 268 271 271 278 282 281 281 279 270 266 272 276 276 275 275 274 273 273 271 269 267 265 264 264 264 263 261 258 257 255 253 251 247 241 234 231 232 227 229 236 234 231 236 239 245
42 39 32 26 19 10 4 0 357 351 343 335 327 321 320 317 311 304 302 301 299 301 301 298 296 299 301 302 303 298 285 278 280 290 301 301 291 283 279 275 272 270 268 272 278 281 280 277 272 270 274 278 278 277 275 273 270 269 269 270 271 269 266 262 258 256 257 256 254 252 250 248 248 247 241 233 230 232 237 241 239 236 239 244 248
35 28 19 11 3 358 352 350 350 345 337 330 322 319 319 315 313 313 309 303 301 302 303 302 300 300 302 305 307 306 304 300 290 285 293 305 306 298 290 285 280 275 271 270 270 272 273 273 274 275 277 278 278 276 275 273 271 269 268 268 268 268 265 260 255 254 254 252 252 255 255 253 250 250 246 235 232 239 241 240 241 241 242 249 253
12 4 358 348 341 339 336 333 332 323 313 311 312 313 312 311 313 315 310 306 308 310 309 310 309 307 307 308 306 306 307 308 301 291 286 298 311 311 302 295 288 280 276 275 275 275 275 276 277 277 276 276 276 275 274 272 271 270 270 269 268 266 261 253 250 255 256 255 257 260 263 264 258 242 231 229 233 238 238 234 235 238 239 244 251
347 345 344 339 336 332 328 327 326 318 309 309 310 308 310 312 311 309 308 310 312 312 312 312 310 308 308 306 303 304 303 300 305 317 327 324 320 317 310 302 294 283 280 284 286 284 282 280 278 276 274 273 272 272 269 267 266 266 266 265 264 262 257 251 250 254 256 258 262 263 266 269 259 230 221 234 239 238 238 238 239 241 240 240 250
359 0 359 359 356 347 339 336 332 326 324 324 319 318 323 325 323 322 325 328 326 321 318 314 313 315 315 310 307 306 302 303 318 338 342 333 323 319 313 308 303 296 292 292 289 286 285 280 275 273 271 266 264 264 263 261 258 256 254 254 255 254 252 248 247 250 254 260 265 266 266 263 250 233 234 244 245 240 237 237 241 248 251 250 255
23 21 17 15 8 356 348 348 344 337 335 335 332 331 333 334 335 337 344 353 353 347 339 330 330 334 330 325 325 322 317 319 325 327 326 324 324 324 320 317 314 308 301 297 293 291 289 282 276 274 273 269 266 265 265 263 260 256 254 254 255 255 253 249 246 247 251 256 259 260 258 254 248 242 236 235 243 248 241 231 234 247 256 258 261
21 18 12 8 3 354 345 344 343 339 336 335 333 332 330 330 334 340 348 352 353 355 357 357 359 1 353 342 341 341 336 332 328 322 321 323 325 323 320 318 317 313 309 308 307 301 290 282 281 282 281 279 276 273 273 272 272 272 271 267 265 264 260 256 257 256 253 248 247 247 246 244 245 242 228 219 229 241 236 223 224 237 246 254 261
11 8 4 358 354 347 340 340 340 337 336 336 335 332 330 329 333 342 347 346 348 355 0 4 12 15 10 1 356 353 347 344 342 338 335 332 329 325 321 317 315 313 312 313 312 300 280 273 276 277 277 276 275 276 280 283 285 289 294 298 300 296 282 268 266 263 252 240 239 240 238 238 241 242 235 226 226 232 233 231 236 243 247 252 259
7 6 2 354 348 343 341 341 341 340 341 341 338 335 333 330 330 336 339 340 346 355 360 8 18 16 12 9 4 355 348 345 345 344 341 339 337 331 325 321 317 314 314 313 306 292 277 273 276 277 278 279 280 282 285 286 285 290 299 305 312 316 315 309 297 282 266 251 242 235 235 244 249 250 252 252 248 247 249 252 252 252 255 259 261
5 6 2 352 345 344 345 345 346 346 345 343 340 339 338 337 336 335 334 337 345 352 358 18 22 13 10 6 356 347 345 344 341 338 337 337 335 332 331 330 324 315 313 311 301 293 293 295 294 294 292 291 290 288 286 283 278 271 271 275 288 304 313 319 317 305 298 294 282 265 263 270 269 267 270 273 271 268 269 271 268 264 265 267 264
6 8 3 353 347 348 351 350 351 351 348 345 344 342 343 344 341 337 337 343 349 348 353 10 12 6 3 358 354 355 358 357 352 348 345 344 343 341 338 332 318 302 294 295 299 305 309 308 306 305 304 303 300 295 291 287 281 272 268 265 260 267 286 311 354 342 326 319 315 318 322 312 299 294 292 289 287 284 283 282 279 274 273 274 271
12 8 3 359 356 357 358 359 359 357 353 351 352 351 351 352 350 348 351 356 355 354 1 8 7 4 3 3 7 15 17 12 8 6 2 356 352 347 339 330 322 313 307 308 313 318 319 316 314 314 314 314 313 309 304 297 288 281 275 253 215 182 150 122 88 32 352 335 329 326 318 304 294 291 292 291 291 291 289 287 286 286 286 287 283
18 12 9 8 8 8 9 11 10 7 3 2 4 6 7 6 5 7 13 15 12 14 20 18 10 8 10 10 15 20 21 19 18 17 13 8 2 353 346 348 349 346 343 342 341 339 337 335 333 330 329 331 330 326 322 316 306 301 297 243 115 92 83 86 63 35 16 349 327 311 301 298 295 293 293 293 291 289 290 293 296 297 302 312 314
26 21 18 16 15 18 22 23 22 21 21 22 24 25 25 25 25 26 28 28 25 25 28 23 15 12 12 11 12 16 20 22 24 24 23 22 19 13 10 10 8 4 1 360 357 353 351 353 353 350 350 352 350 351 358 8 21 31 39 51 56 51 45 42 32 25 16 347 320 306 304 306 304 300 301 303 301 295 292 292 294 296 300 307 308
37 35 34 28 24 26 31 32 31 31 33 35 35 34 32 32 31 31 31 30 28 26 27 25 21 18 16 11 10 14 20 23 25 26 27 26 25 25 24 22 20 17 15 13 11 8 7 10 12 12 14 16 18 23 32 36 38 39 38 39 39 34 28 23 16 9 359 337 319 311 307 305 304 303 304 303 299 295 293 292 295 299 299 292 286
43 43 44 41 35 34 36 36 35 34 34 35 34 33 32 30 29 28 27 27 27 27 27 27 27 24 19 12 6 9 18 25 26 26 27 26 26 27 27 25 24 22 20 19 20 20 21 25 27 27 28 29 28 30 32 33 32 31 30 30 27 18 11 6 1 355 347 333 321 317 313 308 307 304 299 294 294 296 298 299 300 303 301 294 291
44 44 43 41 39 39 38 37 36 34 33 32 32 32 32 29 28 28 27 27 27 27 26 27 29 26 21 13 7 8 18 27 27 25 26 26 25 26 26 25 24 22 20 21 22 23 25 27 28 28 28 28 29 30 31 31 30 29 28 26 19 9 2 357 349 342 336 327 319 312 307 303 302 299 296 297 300 300 301 302 300 297 295 294 293
38 40 39 36 35 35 35 35 36 35 33 33 33 33 33 31 30 30 29 28 28 27 26 27 28 26 23 19 16 17 24 27 24 23 24 24 23 23 23 22 21 20 18 18 18 20 23 26 29 32 32 30 28 26 24 23 22 19 17 14 7 0 353 346 337 327 318 309 300 291 287 288 293 295 298 304 304 299 298 300 299 294 289 288 289
31 33 33 31 32 34 35 37 38 38 38 38 36 33 33 33 33 33 32 29 27 27 26 25 24 23 22 20 19 22 27 26 23 23 22 20 20 21 21 20 20 19 17 16 14 13 15 18 22 25 24 21 17 13 11 11 11 7 2 354 345 339 335 330 325 319 310 299 287 279 279 282 284 283 285 297 305 304 304 308 309 303 296 289 285
28 30 32 32 34 37 38 39 42 41 40 41 39 35 34 35 33 32 33 30 26 25 26 24 20 19 20 19 19 22 26 26 23 22 21 20 21 20 20 20 20 19 19 20 19 17 16 17 17 16 13 9 6 2 0 358 356 356 356 353 346 340 335 331 328 327 324 315 300 286 279 278 282 284 287 295 302 303 303 306 308 307 304 300 292
28 31 34 36 38 41 41 41 42 42 40 41 42 38 36 36 34 31 29 28 25 25 25 23 19 16 16 18 18 19 21 23 21 19 18 18 17 17 17 16 15 16 18 19 19 19 19 19 19 17 17 15 13 11 10 7 4 1 359 356 353 351 348 343 338 334 330 326 316 302 290 283 284 284 283 285 288 291 294 295 297 302 309 308 302
30 31 37 39 39 42 43 41 40 40 36 36 39 38 36 36 35 32 27 25 22 21 22 22 20 17 16 16 17 16 16 17 17 16 15 14 13 13 12 10 8 9 10 10 11 12 12 12 12 12 11 11 12 13 14 16 17 18 16 11 7 4 357 352 351 348 341 333 325 311 296 286 281 278 278 280 284 288 291 290 287 290 294 293 293
33 30 38 44 43 43 43 38 37 39 37 34 35 35 34 34 33 30 27 23 18 17 18 19 18 18 16 14 14 13 12 11 12 12 11 10 9 8 7 5 3 2 2 3 4 5 4 4 5 3 2 3 2 3 5 8 12 13 8 2 1 360 353 350 352 351 344 337 333 323 309 296 286 280 278 280 281 283 287 287 286 286 286 284 286
37 31 34 42 41 42 43 38 33 35 36 36 34 31 30 29 27 25 24 22 16 14 16 16 15 17 16 13 11 10 8 6 7 6 5 5 4 2 1 1 359 357 357 358 358 358 358 359 358 357 357 358 358 358 1 4 8 9 1 353 351 351 347 342 340 335 328 328 330 329 323 314 302 289 284 281 278 277 279 279 278 279 278 278 281
34 37 37 36 34 35 37 34 30 30 32 34 32 28 24 24 22 20 19 18 14 12 13 13 12 13 12 10 8 6 4 2 1 0 0 1 360 357 357 356 354 353 352 352 352 353 353 351 350 351 350 349 350 352 354 356 3 5 357 348 346 346 344 341 337 330 323 319 317 315 314 313 309 303 300 296 288 283 280 277 273 272 270 268 270
29 36 37 33 31 31 30 27 26 27 25 24 25 23 19 17 18 17 14 12 11 10 8 8 8 7 6 6 4 2 0 360 358 356 356 355 354 354 353 352 351 351 349 347 347 348 347 345 345 345 343 343 344 344 344 350 0 357 345 337 335 334 333 333 332 329 326 321 314 307 303 300 299 298 300 298 292 286 282 278 274 270 265 262 261
31 34 32 29 28 28 26 25 25 24 21 17 17 18 14 10 12 14 10 6 6 6 4 4 4 2 0 0 359 357 357 355 353 351 349 348 348 349 347 346 347 347 345 343 344 343 341 341 341 339 338 339 337 334 336 346 351 340 332 328 326 324 322 322 322 322 323 322 321 317 311 303 297 292 289 286 283 280 278 275 273 270 266 261 259
30 35 31 27 25 22 22 22 21 21 20 16 11 11 10 6 6 8 6 2 1 1 360 360 360 358 356 355 354 353 351 349 347 346 344 343 343 343 342 341 342 341 339 339 339 337 337 338 336 334 335 336 332 331 336 335 325 324 326 325 321 320 319 318 316 314 313 314 317 318 312 302 295 290 284 278 274 273 273 272 270 268 265 261 259